Location: Asheville, NC
(35.6000°N, 82.5500°W)
Time: 20:10:49

FALCONSAT 3 - Pass Details

Date: 12 March 2018
Orbit: 461 x 466 km, 35.4° (Epoch: 17 March)

Event Time Altitude Azimuth Distance (km) Brightness Sun altitude
Exits shadow 07:05:31 12° 271° (W) 1,484 ? -8.9°
Maximum altitude 07:08:53 89° 204° (SSW) 465 ? -8.2°
Drops below altitude 10° 07:12:33 10° 92° (E) 1,604 ? -7.5°
Sets 07:14:44 0° 92° (E) 2,478 ? -7.0°
